GORIZONT 22 [-]

Last updated on Jan. 22, 2020, 4:37 a.m. UTC

1 20953U 90102A   20021.54432238  .00000113  00000-0  00000-0 0  9992
2 20953  14.6999 355.9744 0007348 333.3077  27.4640  1.00179645106928
UTC
Height (km)
Latitude
Longitude
Inclination
Orbital Period
UTC large
Height (km)
Speed (km/s)
/
Latitude / Longitude
Inclination (degrees)
Orbital Period (minutes)
Azimuth
Elevation
Range (km)
Doppler Factor
iOS Compass Heading
iOS Angle

Next 30 passes for location: Hong Kong

Rise time Rise Azimuth (degrees) Set time Set Azimuth (degrees) Duration Max altitude (degrees)

No matching passes for this satellites